DW9029 Weather Reports


time (UTC)temp
C
wind
direction
speed
KPH
gust
KPH
rain 1hr
cm
rain 24hr
cm
rain mn
cm
humidity
%
barometer
mb
20260508084405 17 195 1.6 11.3 0.00 0.00 0.00 66 1011.4
20260508083904 17 230 4.8 14.5 0.00 0.00 0.00 67 1011.4
20260508083404 17 191 8.0 19.3 0.00 0.00 0.00 68 1011.4
20260508081905 16 220 6.4 14.5 0.00 0.00 0.00 71 1011.5
20260508081405 16 224 1.6 9.7 0.00 0.00 0.00 74 1011.4
20260508080404 16 207 1.6 9.7 0.00 0.00 0.00 75 1011.4
20260508074904 16 215 0.0 0.0 0.00 0.00 0.00 75 1011.3
20260508073405 16 145 3.2 11.3 0.00 0.00 0.00 76 1011.1
20260508071905 15 138 3.2 8.0 0.00 0.00 0.00 77 1010.9
20260508064905 14 174 1.6 8.0 0.00 0.00 0.00 79 1010.9
20260508063905 14 156 3.2 8.0 0.00 0.00 0.00 80 1010.9
20260508063405 14 147 3.2 9.7 0.00 0.00 0.00 80 1010.8
20260508061905 13 172 0.0 3.2 0.00 0.00 0.00 81 1010.7
20260508061405 13 161 0.0 4.8 0.00 0.00 0.00 81 1010.8
20260508060904 13 181 0.0 0.0 0.00 0.00 0.00 80 1010.7
20260508060405 13 182 0.0 8.0 0.00 0.00 0.00 80 1010.6
20260508054404 13 192 0.0 1.6 0.00 0.00 0.00 81 1010.6
20260508053905 13 180 0.0 0.0 0.00 0.00 0.00 80 1010.5
20260508053404 13 180 0.0 0.0 0.00 0.00 0.00 80 1010.4
20260508051905 13 180 0.0 0.0 0.00 0.00 0.00 80 1010.1
20260508051405 13 182 0.0 0.0 0.00 0.00 0.00 80 1009.9
20260508050905 13 182 0.0 0.0 0.00 0.00 0.00 80 1009.9
20260508050405 13 182 0.0 8.0 0.00 0.00 0.00 79 1009.8
20260508044905 14 221 0.0 4.8 0.00 0.00 0.00 79 1009.8
20260508044404 14 201 0.0 3.2 0.00 0.00 0.00 79 1009.7
20260508043904 14 197 0.0 0.0 0.00 0.00 0.00 79 1009.6
20260508041905 14 202 0.0 4.8 0.00 0.00 0.00 79 1009.3
20260508041405 14 207 0.0 0.0 0.00 0.00 0.00 79 1009.5
20260508040905 14 209 0.0 1.6 0.00 0.00 0.00 79 1009.5
20260508034904 13 221 1.6 4.8 0.00 0.00 0.00 79 1009.7
20260508033905 13 188 0.0 0.0 0.00 0.00 0.00 79 1009.4
20260508033405 13 189 0.0 3.2 0.00 0.00 0.00 79 1009.4
20260508031904 13 175 0.0 0.0 0.00 0.00 0.00 79 1009.7
20260508031405 13 177 0.0 0.0 0.00 0.00 0.00 79 1009.6
20260508030905 13 178 0.0 0.0 0.00 0.00 0.00 79 1009.8
20260508024904 14 180 0.0 0.0 0.00 0.00 0.00 78 1009.9
20260508024405 14 180 0.0 1.6 0.00 0.00 0.00 78 1010.0
20260508023905 14 181 0.0 3.2 0.00 0.00 0.00 78 1009.8
20260508023405 14 188 0.0 4.8 0.00 0.00 0.00 78 1009.7
20260508021904 14 200 0.0 0.0 0.00 0.00 0.00 77 1009.9
20260508020904 14 204 1.6 8.0 0.00 0.00 0.00 77 1009.9
20260508020405 14 197 1.6 4.8 0.00 0.00 0.00 77 1009.8
20260508014905 15 189 0.0 8.0 0.00 0.00 0.00 76 1009.9
20260508014405 15 188 1.6 4.8 0.00 0.00 0.00 76 1009.9
20260508013905 15 193 0.0 0.0 0.00 0.00 0.00 76 1010.0
20260508013405 15 192 0.0 4.8 0.00 0.00 0.00 76 1010.1
20260508011905 15 210 1.6 4.8 0.00 0.00 0.00 76 1010.1
20260508011405 15 205 0.0 4.8 0.00 0.00 0.00 76 1010.1
20260508010904 15 204 0.0 1.6 0.00 0.00 0.00 76 1010.1
20260508004905 15 185 0.0 4.8 0.00 0.00 0.00 76 1010.3
20260508004405 15 203 0.0 4.8 0.00 0.00 0.00 76 1010.4
20260508003904 15 184 3.2 9.7 0.00 0.00 0.00 76 1010.3
20260508001905 15 166 1.6 8.0 0.00 0.00 0.00 77 1010.1
20260508001404 15 193 0.0 0.0 0.00 0.00 0.00 77 1010.0
20260508000905 15 196 1.6 4.8 0.00 0.00 0.00 76 1010.1
20260508000405 15 172 1.6 4.8 0.00 0.00 0.00 76 1010.1
20260507234905 15 185 0.0 4.8 0.00 0.00 0.00 76 1010.4
20260507234405 15 194 0.0 3.2 0.00 0.00 0.00 76 1010.4
20260507233905 15 183 0.0 0.0 0.00 0.00 0.00 76 1010.2
20260507233405 15 186 1.6 4.8 0.00 0.00 0.00 76 1010.2
20260507231905 15 188 0.0 0.0 0.00 0.00 0.00 75 1010.2
20260507231405 15 188 0.0 0.0 0.00 0.00 0.00 75 1010.2
20260507230905 15 188 0.0 0.0 0.00 0.00 0.00 75 1010.4
20260507230405 15 191 0.0 1.6 0.00 0.00 0.00 74 1010.5
20260507224905 15 192 0.0 0.0 0.00 0.00 0.00 74 1010.6
20260507224404 15 192 0.0 0.0 0.00 0.00 0.00 73 1010.7
20260507223905 16 198 1.6 8.0 0.00 0.00 0.00 73 1010.8
20260507223404 16 207 0.0 0.0 0.00 0.00 0.00 73 1010.8
20260507221905 16 178 1.6 4.8 0.00 0.00 0.00 72 1010.8
20260507221405 16 192 1.6 4.8 0.00 0.00 0.00 72 1010.9
20260507220405 16 180 0.0 8.0 0.00 0.00 0.00 71 1010.9
20260507214904 16 186 0.0 4.8 0.00 0.00 0.00 70 1010.8
20260507214405 16 176 0.0 0.0 0.00 0.00 0.00 69 1010.7
20260507213904 16 199 0.0 1.6 0.00 0.00 0.00 67 1010.7
20260507211904 16 190 0.0 8.0 0.00 0.00 0.00 64 1010.7
20260507210405 17 252 1.6 8.0 0.00 0.00 0.00 64 1010.5
20260507204905 17 269 1.6 8.0 0.00 0.00 0.00 63 1010.2
20260507204405 17 251 0.0 8.0 0.00 0.00 0.00 63 1010.2
20260507203905 17 255 3.2 11.3 0.00 0.00 0.00 63 1010.1
20260507201905 17 251 8.0 14.5 0.00 0.00 0.00 62 1010.0
20260507201404 17 257 1.6 9.7 0.00 0.00 0.00 62 1010.0
20260507200904 17 253 6.4 12.9 0.00 0.00 0.00 62 1010.0
20260507194905 17 256 8.0 16.1 0.00 0.00 0.00 64 1009.9
20260507194405 17 256 4.8 11.3 0.00 0.00 0.00 63 1009.9
20260507193905 17 255 8.0 14.5 0.00 0.00 0.00 63 1009.8
20260507193405 17 220 4.8 19.3 0.00 0.00 0.00 63 1009.7
20260507191905 18 233 6.4 16.1 0.00 0.00 0.00 61 1009.6
20260507191404 18 219 8.0 20.9 0.00 0.00 0.00 61 1009.6
20260507190905 18 227 9.7 19.3 0.00 0.00 0.00 61 1009.5
20260507190405 18 232 4.8 20.9 0.00 0.00 0.00 60 1009.4
20260507184904 18 220 11.3 24.1 0.00 0.00 0.00 58 1009.2
20260507184405 18 219 9.7 19.3 0.00 0.00 0.00 57 1009.1
20260507183905 18 222 9.7 22.5 0.00 0.00 0.00 57 1008.9
20260507183405 19 222 11.3 25.7 0.00 0.00 0.00 55 1008.9
20260507181405 20 215 8.0 20.9 0.00 0.00 0.00 55 1008.7
20260507180905 20 217 11.3 22.5 0.00 0.00 0.00 54 1008.6
20260507180405 20 213 6.4 25.7 0.00 0.00 0.00 54 1008.6
20260507174905 20 217 11.3 27.4 0.00 0.00 0.00 52 1008.5
20260507174405 20 228 12.9 24.1 0.00 0.00 0.00 51 1008.5
20260507173904 20 229 9.7 24.1 0.00 0.00 0.00 50 1008.5
20260507173404 21 230 3.2 24.1 0.00 0.00 0.00 50 1008.4
20260507171905 21 211 16.1 25.7 0.00 0.00 0.00 50 1008.2
20260507171404 21 230 4.8 14.5 0.00 0.00 0.00 50 1008.2
20260507170905 21 201 11.3 20.9 0.00 0.00 0.00 50 1008.1
20260507170405 21 211 16.1 22.5 0.00 0.00 0.00 49 1008.1
20260507164904 21 210 11.3 19.3 0.00 0.00 0.00 48 1008.0
20260507164405 21 197 11.3 22.5 0.00 0.00 0.00 46 1007.9
20260507163905 22 199 11.3 20.9 0.00 0.00 0.00 46 1007.9
20260507163404 22 233 9.7 22.5 0.00 0.00 0.00 46 1008.0
20260507161904 21 201 11.3 20.9 0.00 0.00 0.00 44 1007.8
20260507161405 22 196 11.3 20.9 0.00 0.00 0.00 47 1007.8
20260507160905 22 228 9.7 22.5 0.00 0.00 0.00 45 1007.8
20260507160405 22 200 4.8 24.1 0.00 0.00 0.00 46 1007.8
20260507154905 22 205 11.3 22.5 0.00 0.00 0.00 43 1007.8
20260507153905 22 231 8.0 19.3 0.00 0.00 0.00 42 1007.9
20260507153405 22 204 11.3 24.1 0.00 0.00 0.00 42 1007.8
20260507151905 22 198 9.7 16.1 0.00 0.00 0.00 42 1007.8
20260507151405 22 218 8.0 19.3 0.00 0.00 0.00 41 1007.9
20260507150904 22 212 9.7 22.5 0.00 0.00 0.00 43 1008.0
20260507150404 22 206 11.3 24.1 0.00 0.00 0.00 44 1008.0
20260507144905 22 223 8.0 19.3 0.00 0.00 0.00 44 1008.2
20260507144404 22 245 9.7 19.3 0.00 0.00 0.00 45 1008.2
20260507143405 21 195 8.0 25.7 0.00 0.00 0.00 47 1008.2
20260507141905 21 243 8.0 20.9 0.00 0.00 0.00 50 1008.5
20260507141405 21 217 14.5 24.1 0.00 0.00 0.00 51 1008.5
20260507140905 21 197 14.5 20.9 0.00 0.00 0.00 51 1008.6
20260507140406 21 215 9.7 24.1 0.00 0.00 0.00 50 1008.6
20260507134405 21 199 9.7 19.3 0.00 0.00 0.00 52 1008.7
20260507133905 21 218 14.5 22.5 0.00 0.00 0.00 51 1008.8
20260507133405 21 217 9.7 22.5 0.00 0.00 0.00 52 1008.9
20260507131906 21 180 8.0 19.3 0.00 0.00 0.00 52 1009.0
20260507131405 21 227 14.5 24.1 0.00 0.00 0.00 52 1009.0
20260507130404 21 205 9.7 22.5 0.00 0.00 0.00 53 1009.0
20260507124905 21 192 14.5 25.7 0.00 0.00 0.00 52 1009.1
20260507124405 21 242 9.7 19.3 0.00 0.00 0.00 53 1009.1
20260507123904 21 184 12.9 27.4 0.00 0.00 0.00 53 1009.3
20260507123404 21 226 9.7 22.5 0.00 0.00 0.00 53 1009.2
20260507121904 21 212 8.0 14.5 0.00 0.00 0.00 55 1009.4
20260507121405 21 185 9.7 19.3 0.00 0.00 0.00 56 1009.4
20260507120905 20 232 11.3 27.4 0.00 0.00 0.00 56 1009.4
20260507120405 21 216 12.9 24.1 0.00 0.00 0.00 55 1009.5
20260507114905 21 205 9.7 14.5 0.00 0.00 0.00 54 1009.6
20260507114404 21 189 11.3 19.3 0.00 0.00 0.00 53 1009.6
20260507113904 21 180 9.7 19.3 0.00 0.00 0.00 53 1009.7
20260507113404 21 202 3.2 20.9 0.00 0.00 0.00 55 1009.6
20260507111905 20 189 9.7 22.5 0.00 0.00 0.00 57 1009.8
20260507111404 20 183 11.3 20.9 0.00 0.00 0.00 57 1009.8
20260507110905 20 200 9.7 16.1 0.00 0.00 0.00 59 1009.9
20260507110405 20 213 9.7 22.5 0.00 0.00 0.00 59 1009.8
20260507103405 19 199 9.7 19.3 0.00 0.00 0.00 63 1009.9
20260507101904 19 211 12.9 20.9 0.00 0.00 0.00 64 1010.1
20260507101405 19 160 1.6 20.9 0.00 0.00 0.00 65 1010.1
20260507100905 20 185 6.4 19.3 0.00 0.00 0.00 64 1010.1
20260507094905 19 200 3.2 16.1 0.00 0.00 0.00 67 1010.3
20260507094405 18 148 8.0 25.7 0.00 0.00 0.00 66 1010.3
20260507093904 18 137 6.4 24.1 0.00 0.00 0.00 67 1010.3
20260507091905 18 172 4.8 14.5 0.00 0.00 0.00 71 1010.2
20260507091404 18 179 9.7 19.3 0.00 0.00 0.00 71 1010.3
20260507090905 18 185 11.3 24.1 0.00 0.00 0.00 71 1010.3
20260507090405 18 192 11.3 22.5 0.00 0.00 0.00 70 1010.3